SCP
0 0 0 0 0 0 0 0 0 0 0 0 0 0 0 0 0 0 0 0 0 0 1 1 1 1 1 1 1 1 1 1 1 1 1 1 1 1 1 0 0 0 0
0 0 0 0 0 0 0 0 0 0 0 0 0 0 0 0 0 0 0 0 0 0 1 1 1 1 1 1 1 1 1 1 1 1 1 1 1 1 1 0 0 0 0
0 0 0 0 0 0 0 0 0 0 0 0 0 0 0 0 0 0 0 0 0 0 0 1 1 1 1 1 1 1 1 1 1 1 1 1 1 1 1 0 0 0 0
0 0 0 0 0 0 0 0 0 0 0 0 0 0 0 0 0 0 0 0 0 0 0 0 1 1 1 1 1 1 1 1 1 1 0 0 0 1 0 0 0 0 0
0 0 0 0 0 0 0 0 0 0 0 0 0 0 0 0 0 0 0 0 0 0 0 0 0 0 0 1 1 1 1 1 1 1 0 0 0 0 0 0 0 0 0
0 0 0 0 0 0 0 0 0 0 0 0 0 0 0 0 0 0 0 0 0 0 0 0 0 0 0 1 1 1 1 1 1 1 0 0 0 0 0 0 0 0 0
0 0 0 0 0 0 0 0 0 0 0 0 0 0 0 0 0 0 0 0 0 0 0 0 0 0 0 0 1 1 1 1 1 1 0 0 0 0 0 0 0 0 0
0 0 0 0 0 0 0 0 0 0 0 0 0 0 0 0 0 0 0 0 0 0 0 0 0 0 0 0 0 1 1 1 1 1 1 1 1 1 0 0 0 0 0
0 0 0 0 0 0 0 0 0 0 0 0 0 0 0 0 0 0 0 0 0 0 0 0 0 0 0 0 0 1 1 1 1 1 1 1 1 1 0 0 0 0 0
0 0 0 0 0 0 0 0 0 0 0 0 0 0 0 0 0 0 0 0 0 0 0 0 0 0 0 0 0 1 1 1 0 1 1 1 1 1 0 0 0 0 0
0 0 0 0 0 0 0 0 0 0 0 0 0 0 0 0 0 0 0 0 0 0 0 0 0 0 0 0 0 0 0 0 0 0 0 1 1 1 0 0 0 0 0
0 0 0 0 0 0 0 0 0 0 0 0 0 0 0 0 0 0 0 0 0 0 0 0 0 0 0 0 0 0 0 0 0 0 0 0 0 0 0 0 0 0 0
0 0 0 0 0 0 0 0 0 0 0 0 0 0 0 0 0 0 0 0 0 0 0 0 0 0 0 0 0 0 0 0 0 0 0 0 0 0 0 0 0 1 1
0 0 0 0 0 0 0 0 0 0 0 0 0 0 0 0 0 0 0 0 0 0 0 0 0 0 0 0 0 0 0 0 0 0 0 0 0 0 0 0 1 1 1
0 0 0 0 0 0 0 0 0 0 0 0 0 0 0 0 0 0 0 0 0 0 0 0 0 0 0 0 0 0 0 0 0 0 0 1 1 0 0 0 1 1 1
0 1 1 1 1 1 0 0 0 0 0 0 0 0 0 0 0 0 0 0 0 0 0 0 0 0 0 0 0 0 0 0 0 0 0 1 1 1 1 0 0 1 1
1 1 1 1 1 1 1 0 0 0 0 0 0 0 0 0 0 0 0 0 0 0 0 0 0 0 0 0 0 0 0 0 0 0 0 0 0 1 1 1 1 0 0
1 1 1 1 1 1 1 1 1 0 0 0 0 0 0 0 0 0 0 0 0 0 0 0 0 0 0 0 0 0 0 0 0 0 0 0 0 0 0 1 1 0 0
1 1 1 1 1 1 1 1 1 1 1 0 0 0 0 0 0 0 0 0 0 0 0 0 0 0 0 0 0 0 0 0 0 0 0 0 0 0 0 0 0 1 1
1 1 1 1 1 1 1 1 1 1 1 1 1 0 0 0 0 0 0 0 0 0 0 0 0 0 0 0 0 0 0 0 0 0 0 0 0 0 0 0 0 0 0
1 1 1 1 1 2 2 2 2 2 1 1 1 1 0 0 0 0 0 0 0 0 0 0 0 0 0 0 0 0 0 0 0 0 0 0 0 0 0 0 0 0 0
1 1 2 2 2 3 3 2 2 2 1 1 1 1 1 0 0 0 0 0 0 0 0 0 0 0 0 0 0 0 0 0 0 0 0 0 0 0 0 0 0 0 0
2 2 2 3 4 4 3 3 2 2 1 1 1 1 1 0 0 0 0 0 0 0 0 0 0 0 0 0 0 0 0 0 0 0 0 0 0 0 0 0 0 0 0
3 3 3 4 4 4 3 3 2 2 1 1 1 1 1 0 0 0 0 0 0 0 0 0 0 0 0 0 0 0 0 0 0 0 0 0 0 0 0 0 0 0 0
4 4 4 4 4 4 3 3 2 2 1 1 1 1 1 0 0 0 0 0 0 0 0 1 1 0 0 0 0 0 0 0 0 0 0 0 0 0 0 0 0 0 0
4 4 4 4 4 4 3 3 2 2 1 1 1 1 1 1 1 1 0 0 0 0 1 1 1 1 0 0 0 0 0 0 0 0 0 0 0 0 0 0 0 0 0
Wind_Speed
6 7 14 14 13 12 12 12 12 12 12 12 12 12 13 13 13 12 12 12 11 11 10 10 10 10 10 10 10 10 10 12 11 10 9 7 7 6 5 6 7 4 6
11 9 15 14 13 12 12 12 12 12 12 12 12 12 13 13 12 12 11 11 11 10 10 10 9 9 9 9 9 9 10 11 11 10 8 6 6 6 7 8 7 4 8
13 10 12 14 13 12 12 12 12 12 12 12 12 13 13 12 12 11 10 10 10 10 10 10 10 10 9 9 9 9 9 9 8 8 7 3 4 6 7 8 8 8 9
14 10 10 14 13 12 12 12 12 12 12 12 13 13 13 12 11 10 10 10 10 10 9 9 10 10 10 9 8 8 8 6 6 7 4 3 2 6 7 8 8 9 9
12 10 11 15 14 13 12 12 12 12 12 12 12 12 12 12 11 10 10 10 10 10 9 9 9 9 9 8 8 8 8 7 8 7 5 3 2 6 8 8 8 8 9
12 10 11 15 14 13 12 12 12 12 11 11 12 12 12 11 10 10 9 9 9 9 9 8 8 8 8 7 7 8 8 8 8 5 4 3 2 6 8 8 7 8 8
11 9 10 15 14 13 12 12 12 12 11 11 12 12 12 11 10 10 9 9 9 9 8 8 7 7 5 5 6 8 7 8 6 4 4 3 3 7 8 7 7 7 8
12 10 9 14 14 13 12 12 12 12 12 12 12 12 12 11 10 10 9 8 8 8 8 8 6 5 3 3 5 7 8 6 7 5 4 3 6 8 7 7 7 7 7
11 10 7 7 9 12 12 12 12 12 12 12 12 12 12 11 10 9 9 8 8 9 9 8 6 4 1 2 3 5 6 7 5 3 4 2 7 8 8 7 7 7 7
9 9 8 6 6 6 7 12 12 12 12 12 12 12 12 11 10 9 8 8 9 9 9 7 6 3 1 1 2 5 7 7 5 4 2 3 8 8 8 7 7 7 7
9 8 8 7 6 6 6 9 10 12 12 12 10 13 10 5 4 5 6 8 9 9 8 6 4 3 1 2 3 5 6 3 4 3 2 5 7 7 7 7 7 7 7
11 10 9 8 8 7 7 5 4 4 5 5 4 6 4 4 3 5 7 9 8 8 6 5 3 1 1 2 4 5 3 4 3 2 2 6 6 6 6 6 6 6 6
13 13 12 10 9 8 5 5 3 3 3 4 5 5 4 3 3 3 2 3 3 4 2 1 1 1 1 1 2 3 4 3 2 2 2 5 5 5 5 5 5 5 5
12 13 13 13 11 9 8 6 5 4 4 4 5 6 4 3 3 3 2 2 2 2 2 1 1 2 2 2 3 4 4 3 2 2 3 7 6 6 6 6 6 6 5
13 13 14 14 13 11 9 7 7 6 6 5 5 6 6 5 5 4 3 3 3 2 2 2 1 2 3 4 5 5 5 4 4 3 3 7 7 7 7 8 8 8 7
14 14 14 15 14 12 9 8 7 7 6 5 5 7 8 6 6 5 4 4 4 4 3 2 2 3 4 5 6 5 5 4 4 4 4 5 8 7 8 9 9 8 8
16 15 15 15 14 14 12 10 8 7 7 6 6 7 9 8 8 7 5 5 5 4 3 2 3 3 5 5 5 5 4 4 4 4 4 4 4 8 9 9 9 9 8
14 15 16 15 15 14 11 10 7 7 6 5 5 5 8 9 10 8 6 6 6 4 3 4 4 3 4 4 4 4 3 4 4 3 3 3 3 4 6 9 9 9 7
16 16 16 14 15 14 11 8 6 6 6 5 4 4 6 7 8 8 7 6 6 4 4 5 3 4 4 4 4 3 3 4 4 4 3 3 3 3 3 6 8 8 7
15 15 15 12 13 11 7 5 4 4 4 4 4 5 6 5 5 6 5 7 6 5 4 4 5 3 4 4 4 3 2 3 3 4 4 3 3 3 3 3 3 5 7
13 12 12 10 10 8 6 5 5 5 4 4 5 6 6 5 4 4 4 6 6 6 7 7 4 4 3 3 4 3 3 2 2 3 3 3 3 3 3 3 2 2 3
12 11 10 9 9 9 7 5 3 3 3 3 4 5 6 5 5 5 5 5 6 5 6 6 5 4 2 2 4 3 1 2 2 1 2 4 4 3 4 4 3 2 2
10 10 9 8 8 8 8 5 4 3 2 2 3 4 6 5 5 5 6 5 5 5 6 6 7 7 5 2 2 4 4 4 2 1 2 2 4 3 3 4 5 4 3
10 8 9 9 9 8 8 7 7 5 4 5 4 4 5 5 5 6 6 6 6 5 6 7 6 5 7 4 2 2 2 4 4 1 2 2 3 3 4 4 5 5 4
11 9 8 8 8 7 7 7 6 4 3 3 2 4 4 4 5 6 6 6 6 5 6 6 5 5 5 5 5 3 2 1 2 3 2 2 2 2 3 4 5 5 5
11 9 7 7 6 6 7 6 6 6 4 4 3 3 3 2 3 5 6 6 5 5 6 6 6 7 6 6 5 4 4 4 3 3 2 2 3 3 3 3 4 5 5
Wind_Direction
155 168 159 154 145 136 128 122 121 123 124 122 118 114 109 105 102 96 92 87 83 82 83 86 92 97 101 103 104 108 109 107 105 104 102 97 94 87 84 112 112 110 106
153 163 160 156 149 141 133 128 126 126 126 125 123 119 114 110 106 101 96 90 86 83 83 86 90 96 100 104 104 100 100 105 109 109 101 94 98 95 91 104 114 112 106
149 159 159 158 153 146 140 134 131 130 130 130 128 125 121 117 114 109 105 100 96 91 88 87 89 93 96 97 97 92 91 99 111 117 111 100 107 110 107 106 110 109 106
149 153 157 159 156 151 146 141 136 134 133 133 132 130 128 125 121 117 113 110 106 102 96 93 91 92 93 93 91 90 87 92 117 135 132 140 130 120 112 106 107 109 110
148 150 158 158 157 155 152 146 141 139 137 136 136 136 135 131 126 122 120 116 112 110 105 99 95 92 92 93 90 86 82 89 112 114 118 122 122 125 115 107 107 112 115
148 150 158 157 158 158 156 152 148 146 144 141 140 141 140 137 132 127 123 121 118 115 111 105 98 94 90 87 80 71 72 91 104 104 114 119 125 126 116 109 110 114 117
146 151 159 158 160 160 160 158 155 153 151 148 146 144 144 142 138 132 127 127 126 122 118 116 108 101 92 81 68 58 64 104 106 104 110 117 130 127 118 114 114 116 118
147 152 156 160 160 161 162 162 160 158 157 155 150 149 149 147 143 136 133 134 132 128 128 126 120 113 99 71 61 59 63 97 113 110 104 111 123 117 116 117 117 119 123
147 150 149 156 159 163 163 163 161 160 159 157 154 154 153 150 147 142 140 142 139 136 137 139 142 138 116 42 45 53 65 102 120 110 107 102 113 110 110 112 111 114 119
147 152 153 152 153 154 160 163 162 161 161 161 159 158 157 155 152 149 148 152 148 146 147 152 158 159 177 339 19 47 72 104 109 90 83 102 105 108 108 107 107 108 111
156 160 161 161 157 152 156 167 163 163 165 163 162 163 156 143 143 148 160 164 158 156 155 160 168 170 175 351 5 47 79 97 102 91 85 104 106 109 109 109 109 109 112
169 172 170 169 165 161 166 147 148 155 156 152 155 153 142 146 162 166 180 174 172 169 167 173 190 231 25 18 12 43 93 108 97 94 103 108 112 113 111 111 112 115 119
176 175 175 174 170 169 156 149 150 147 152 158 162 156 151 157 172 165 177 183 185 181 170 195 232 274 295 5 45 71 99 97 86 73 93 108 118 123 120 120 119 124 129
177 179 176 174 172 171 161 164 164 163 172 175 179 170 158 162 166 174 184 193 201 204 202 213 215 233 228 183 112 102 98 95 88 72 83 99 110 118 118 118 118 120 126
181 180 175 171 171 171 165 170 173 177 185 187 182 180 174 171 175 184 193 201 213 214 210 218 219 183 153 138 124 119 111 103 95 79 74 90 98 110 113 109 104 104 108
184 182 176 172 171 170 173 176 177 182 186 188 187 186 183 180 181 185 193 203 219 217 207 194 180 136 122 123 124 125 122 115 101 92 78 78 87 97 105 105 102 100 101
184 182 179 177 173 174 178 180 179 183 183 189 193 190 184 182 187 188 192 200 217 219 192 157 147 122 115 120 126 133 131 122 111 103 93 80 77 85 96 97 94 92 92
179 181 182 182 179 180 181 183 180 181 180 188 192 190 188 186 189 189 192 198 205 203 173 156 147 126 122 127 131 139 136 133 129 125 106 97 83 78 82 89 86 82 80
179 180 184 184 180 183 181 180 174 171 176 177 180 187 192 191 189 187 193 195 188 183 176 166 151 140 137 139 138 129 130 144 157 154 141 127 116 106 87 85 81 74 72
179 180 184 184 179 175 167 158 149 158 169 169 186 195 196 192 191 191 199 194 179 173 176 164 152 144 145 151 134 107 107 138 156 162 168 161 151 143 123 101 81 73 74
176 177 178 178 173 162 157 157 159 175 179 183 202 204 202 194 190 187 201 195 183 181 178 160 144 139 133 124 97 68 25 49 115 155 162 163 178 175 150 142 122 94 75
172 172 170 170 163 163 161 158 158 157 175 190 202 208 209 203 189 185 190 199 190 180 172 161 147 135 140 141 132 114 65 358 350 111 169 174 182 176 178 181 154 137 108
152 161 162 155 147 144 141 131 117 100 93 148 213 220 218 207 190 182 182 190 194 180 181 176 161 148 154 166 148 144 153 196 243 303 228 196 181 181 191 175 176 173 155
137 139 137 132 128 132 137 142 149 161 175 194 196 209 214 201 191 184 183 185 185 185 186 189 172 157 150 162 168 164 155 154 149 195 293 265 215 194 192 179 175 175 169
130 123 123 121 124 131 136 144 145 153 174 176 179 201 214 206 193 187 186 184 183 184 189 189 177 167 163 165 168 162 155 141 128 140 206 251 263 235 205 182 169 168 171
115 108 110 121 127 134 137 143 151 160 165 166 186 200 210 205 191 187 187 190 188 184 187 189 185 181 187 178 175 167 163 161 163 151 172 204 220 240 214 192 177 173 176